Theta_e
335 342 356 356 353 350 348 346 347 346 346 344 342 340 340 340 339 336 335 334 334 333 332 332 332 331 330 330 330 331 331 331 333 335 337 342 345 350 352 353 356 353 357
337 346 356 355 353 350 350 349 348 348 346 345 343 340 338 338 337 336 334 334 334 334 334 334 334 334 332 332 332 331 331 331 331 332 333 335 339 341 348 352 352 352 356
340 346 351 355 353 352 351 350 349 348 347 346 343 341 340 339 337 336 335 335 335 335 335 335 334 334 335 335 335 334 334 333 332 332 332 329 330 336 341 350 352 352 354
342 346 348 354 353 352 351 350 349 347 347 346 344 341 339 339 338 337 337 336 337 337 337 336 337 338 338 338 338 339 338 337 337 336 329 328 327 334 338 341 351 353 351
342 346 347 354 353 352 352 350 348 347 347 346 344 342 341 340 340 340 338 338 338 339 339 339 340 340 341 341 341 342 341 341 340 338 331 328 325 333 340 343 351 353 352
340 345 348 354 353 352 352 350 349 348 347 347 345 344 342 341 342 342 339 339 339 340 341 342 343 343 344 344 343 343 344 344 343 336 333 333 333 338 344 345 352 354 355
339 343 346 354 353 353 352 351 349 348 347 347 347 345 344 345 344 341 340 341 341 342 343 343 344 346 346 346 345 345 344 345 340 336 335 333 332 341 344 351 355 354 354
337 339 343 353 353 352 352 350 348 347 347 347 347 347 346 346 345 342 342 343 343 343 344 345 345 346 345 345 344 344 344 344 340 335 333 331 335 341 346 353 352 352 352
336 337 341 347 349 352 351 350 348 348 347 347 347 347 347 347 347 346 345 343 344 344 346 347 346 346 345 344 343 343 343 343 336 333 333 331 336 341 345 352 351 352 352
334 333 337 342 343 344 345 351 349 348 348 347 348 348 348 348 348 348 346 347 344 346 347 348 347 345 344 343 341 340 341 341 335 333 332 332 340 341 343 350 349 350 352
335 332 334 338 339 341 341 344 349 349 349 348 348 348 346 342 342 343 345 346 345 347 348 348 346 345 342 340 339 338 339 332 333 332 332 338 341 341 341 345 350 350 350
331 333 336 337 336 338 339 338 342 341 341 342 341 341 342 337 336 341 343 345 345 347 348 348 347 343 341 330 328 335 330 330 331 331 331 340 341 341 342 344 347 349 348
323 332 337 338 337 335 336 337 339 340 339 340 339 337 337 337 336 339 334 336 338 346 340 343 340 336 332 328 327 326 326 328 330 331 334 339 340 340 342 343 346 347 349
313 328 337 339 338 336 334 336 335 338 337 337 338 336 336 335 331 331 331 329 332 336 336 333 333 330 328 328 327 326 326 326 328 330 331 339 339 340 341 342 343 344 347
312 318 334 338 338 338 335 335 335 337 336 335 336 337 336 334 331 330 329 328 329 330 331 329 327 326 326 326 327 327 327 328 329 329 328 337 340 341 341 342 343 343 342
314 313 325 337 338 338 337 335 335 336 336 334 336 337 335 334 331 330 329 328 327 327 328 327 326 325 325 325 325 326 326 325 327 328 328 328 338 342 344 345 344 341 341
315 316 317 333 337 337 337 336 337 337 336 334 336 336 335 333 331 330 329 326 327 327 326 325 325 324 323 324 324 325 325 325 326 326 327 328 331 339 342 343 345 341 340
314 313 314 328 337 337 337 337 337 338 337 335 335 335 335 334 332 329 331 328 328 326 325 324 323 322 322 321 321 322 323 323 325 325 325 328 328 332 338 341 343 342 341
314 314 314 325 335 337 337 337 336 335 336 335 334 334 334 335 333 332 330 328 327 325 324 324 322 322 320 321 322 322 322 322 322 325 325 326 327 331 331 339 341 341 342
313 314 314 322 329 335 334 331 332 334 331 333 334 336 336 335 334 331 329 328 327 325 324 323 322 321 321 321 323 324 322 321 321 321 323 326 325 328 329 328 330 333 341
313 313 314 321 327 333 333 332 331 332 330 329 334 334 334 334 334 331 328 327 325 325 325 322 321 321 320 322 318 320 320 322 320 320 322 322 324 326 327 327 327 329 332
314 314 312 319 329 333 335 334 329 328 326 329 332 334 334 333 332 329 327 326 325 323 323 321 324 318 320 322 316 316 312 316 318 320 320 322 322 324 325 327 326 328 328
313 317 320 323 331 332 331 329 327 326 325 324 325 328 329 331 331 329 328 326 324 322 322 320 318 319 315 320 318 314 308 308 312 318 318 320 321 320 321 323 326 328 328
314 325 328 331 332 333 332 328 328 326 324 321 323 324 326 330 330 329 331 328 326 324 321 320 321 317 316 314 315 318 314 313 312 309 314 316 319 320 320 321 324 326 328
325 328 331 333 333 332 330 329 326 323 322 321 322 323 323 325 328 329 329 328 325 321 321 321 321 318 317 316 314 313 313 313 314 311 307 311 315 317 318 320 322 324 326
326 331 332 332 328 329 328 326 325 323 321 321 320 321 321 322 324 327 326 324 323 322 321 321 321 320 318 317 315 314 313 312 311 312 310 308 310 318 323 325 320 321 325
Wind_Speed
8 13 21 20 19 18 17 18 17 17 17 17 18 17 16 15 15 15 14 12 11 9 8 7 6 5 4 2 2 3 3 4 5 4 4 5 5 8 2 6 9 7 11
12 15 23 21 19 19 18 18 17 17 17 17 17 17 17 16 15 14 13 12 11 9 8 7 6 5 2 1 1 0 1 1 3 5 5 5 7 7 7 5 8 8 10
13 13 17 21 20 20 19 19 18 17 17 17 17 16 16 15 15 14 13 12 11 10 9 7 6 5 4 3 2 2 2 2 2 4 5 3 4 8 6 4 7 10 12
14 13 14 22 22 22 21 20 20 19 18 17 18 18 17 16 16 14 13 12 11 10 9 7 6 5 4 4 4 4 3 4 5 5 2 2 4 8 9 7 7 10 11
13 15 16 24 24 23 21 21 20 20 19 19 19 18 18 17 16 15 14 12 11 10 9 8 7 6 6 6 6 5 5 5 6 5 2 3 3 7 10 10 8 10 11
14 15 20 25 23 23 22 21 21 21 20 20 19 19 18 18 16 15 15 13 12 11 10 9 8 8 9 9 8 7 8 9 8 4 3 4 5 9 12 15 13 11 11
14 13 16 24 23 23 23 22 21 21 21 21 20 19 18 17 16 16 15 13 12 11 10 10 9 9 10 9 10 9 8 10 6 4 5 4 4 11 13 9 10 10 11
16 14 14 22 23 23 23 23 22 22 21 20 20 20 18 18 17 16 15 14 12 12 11 10 9 8 9 9 9 9 9 10 6 4 5 4 7 10 12 8 9 11 11
8 11 12 16 20 24 23 23 22 22 22 21 20 19 19 18 17 16 15 14 13 12 12 11 10 9 9 10 10 10 9 11 6 3 4 3 7 11 10 8 9 11 12
7 9 9 10 12 13 14 22 23 22 22 21 20 20 18 18 17 16 14 13 13 13 13 12 12 10 9 10 11 12 12 13 5 4 4 4 9 12 11 8 9 8 11
4 7 8 11 12 12 12 13 18 21 20 19 18 19 15 7 8 12 11 13 14 14 13 12 12 9 10 11 12 12 12 3 4 3 3 10 11 12 13 11 10 11 11
12 11 11 12 13 12 10 11 12 11 10 10 11 11 8 6 6 8 10 15 14 14 13 12 12 11 10 3 3 8 2 4 4 4 3 14 14 13 13 14 12 10 10
17 8 15 14 13 14 12 9 7 7 7 7 10 9 7 6 5 5 3 3 4 11 4 6 6 4 4 3 4 4 4 4 3 3 7 14 13 13 12 11 12 11 10
9 15 14 15 14 14 9 9 9 9 9 8 9 11 8 6 6 5 4 5 4 4 5 5 3 4 5 5 5 5 5 4 3 4 6 13 13 13 14 10 11 12 10
9 11 13 13 15 13 12 8 9 10 10 10 9 10 9 8 8 6 5 4 5 4 4 4 5 4 5 5 5 5 5 6 5 3 3 13 13 13 13 14 15 13 13
10 10 11 13 13 12 14 14 12 10 10 9 8 9 12 9 6 7 6 6 4 4 4 4 5 5 5 4 6 6 6 5 5 5 4 5 14 13 13 14 16 13 13
10 11 10 15 14 16 17 15 11 10 9 9 9 11 12 11 9 10 6 5 6 4 5 4 4 3 4 3 6 5 4 5 5 5 5 4 5 11 12 14 13 13 14
10 10 10 9 15 16 15 13 9 9 8 8 7 8 12 11 11 7 5 5 4 4 4 4 3 3 4 4 4 5 4 4 5 6 4 4 4 3 8 14 13 12 12
13 14 10 10 13 17 13 9 8 7 7 7 7 7 12 12 10 9 7 5 5 4 3 3 4 4 3 4 5 4 4 4 4 3 5 5 5 4 3 10 13 13 13
10 8 6 8 8 7 5 5 4 5 4 6 7 8 11 8 9 6 5 5 5 4 4 4 5 3 4 5 4 5 4 4 3 4 5 3 5 5 4 4 3 5 10
9 8 10 9 9 10 6 7 5 8 7 5 6 8 9 9 10 9 5 5 5 5 5 3 1 4 3 3 2 1 2 4 4 4 3 3 4 4 4 4 4 3 4
15 11 8 10 9 9 7 5 4 5 2 5 6 7 7 9 10 8 7 5 6 4 4 3 4 2 3 4 3 1 2 2 3 4 3 4 5 3 4 5 5 5 4
10 9 8 9 8 6 8 8 7 7 5 4 3 4 3 5 6 6 6 5 5 4 4 4 4 6 3 3 4 4 2 3 2 1 3 3 3 3 3 4 5 5 5
9 5 5 7 9 9 9 8 11 7 8 3 4 3 4 5 6 6 5 5 5 4 5 4 4 4 4 4 1 3 1 2 3 2 2 1 4 3 4 3 4 5 5
7 6 7 9 9 9 8 11 8 8 4 4 4 7 4 5 6 6 6 6 5 4 4 5 4 4 3 3 3 2 2 1 1 2 1 2 2 1 2 3 3 4 5
6 7 9 10 7 8 9 9 10 11 7 6 5 5 4 3 3 5 5 5 5 4 5 4 4 5 5 3 3 3 3 4 3 3 1 0 1 1 2 2 1 2 3
Wind_Direction
212 167 169 167 174 171 162 158 153 146 141 138 136 138 137 136 138 140 142 143 140 138 132 124 118 111 102 77 69 57 28 9 356 350 358 0 347 342 252 182 171 155 151
129 166 168 169 173 172 168 164 160 152 148 145 145 146 144 145 146 148 149 148 148 149 148 147 145 141 140 149 121 37 346 354 337 326 327 339 334 321 325 206 188 165 162
137 157 166 170 175 176 173 169 163 159 156 154 152 152 152 154 154 157 158 160 162 162 164 165 166 170 180 196 232 262 279 287 288 298 300 6 325 304 297 258 210 188 177
146 151 169 178 178 179 177 174 167 164 163 161 159 161 163 163 165 168 169 171 173 176 179 183 189 196 216 222 231 239 259 275 280 280 325 315 319 302 300 314 212 197 189
155 161 175 183 183 179 179 178 170 169 170 168 170 171 171 170 174 175 178 180 185 188 193 202 209 220 239 242 238 243 250 257 271 281 297 300 279 287 297 285 249 198 195
167 171 180 186 184 180 180 181 176 175 176 176 177 179 178 177 181 181 184 186 194 201 207 215 230 233 244 254 255 248 246 250 253 270 281 279 294 293 303 297 219 195 191
177 178 183 186 187 184 182 184 180 182 181 181 181 184 183 182 184 186 189 190 196 210 219 225 241 256 258 258 252 256 251 255 244 253 269 276 288 297 300 279 181 188 192
173 182 189 188 190 188 187 186 184 186 187 186 187 186 186 187 187 191 195 195 201 214 225 233 244 257 262 256 255 256 253 248 250 233 261 283 289 298 307 234 190 190 195
175 184 186 191 194 193 191 188 188 189 190 189 190 191 190 190 190 193 199 200 204 218 228 239 247 253 254 261 264 261 256 253 244 242 250 266 282 291 316 216 209 197 197
181 193 197 205 198 199 199 194 192 194 194 192 192 193 195 195 194 197 200 205 208 219 231 241 244 251 253 255 261 262 258 255 251 228 247 258 280 282 284 255 224 221 209
214 201 192 201 201 196 200 205 196 199 202 199 198 198 196 192 200 200 198 204 213 222 230 231 242 242 251 255 255 255 255 247 250 243 244 264 269 280 279 276 228 215 222
219 204 198 204 202 197 198 196 199 198 199 200 198 197 191 172 179 194 201 207 217 225 225 227 235 237 248 228 256 261 260 246 239 233 238 260 266 271 275 270 226 224 214
216 198 199 201 195 197 202 193 193 192 192 196 191 181 174 171 185 196 195 216 203 229 215 220 230 224 223 218 240 244 242 241 235 233 241 252 261 258 265 261 226 224 214
208 215 205 202 196 200 194 196 195 197 195 196 195 176 171 172 178 189 198 207 212 192 201 195 197 204 233 231 228 245 244 232 229 242 244 247 248 249 253 250 221 215 222
216 216 218 195 201 195 193 191 196 201 201 197 187 181 179 179 182 186 209 197 209 190 194 191 196 205 228 231 230 224 247 248 225 222 244 251 242 242 254 241 217 221 224
245 229 204 201 200 189 198 195 199 197 200 187 187 187 180 178 171 196 210 207 207 194 199 191 194 202 219 213 239 224 237 251 253 224 234 250 253 238 248 216 210 211 225
249 247 196 199 186 191 200 202 195 197 193 192 185 178 182 178 180 199 209 211 206 196 192 180 205 199 225 222 233 234 234 238 245 246 231 244 252 256 211 193 197 208 218
252 233 219 197 189 192 195 202 201 192 187 183 180 175 179 183 188 176 201 202 194 180 176 175 165 200 217 207 228 234 237 251 243 246 240 237 239 244 208 190 193 210 228
244 242 231 187 188 197 197 189 187 174 175 174 162 172 180 184 178 187 194 191 173 161 172 174 195 192 194 229 240 235 231 245 245 234 232 228 234 243 212 205 194 208 219
254 240 220 188 184 170 160 120 115 146 153 153 168 180 173 169 175 171 188 178 161 150 193 193 200 203 209 227 237 243 245 239 247 219 226 230 230 225 212 194 206 213 206
259 214 210 177 177 158 154 158 162 183 159 154 163 162 157 162 172 177 175 169 160 190 201 166 216 237 257 202 179 279 281 264 244 220 211 227 236 226 199 200 204 194 206
252 223 210 206 165 177 171 166 131 137 119 143 156 164 169 161 169 169 166 180 187 178 196 208 206 237 238 179 161 98 281 289 256 214 196 208 226 204 210 207 200 188 190
242 232 200 191 157 136 127 117 108 104 92 97 116 125 173 173 157 175 166 178 193 185 207 200 193 196 214 202 213 148 142 224 324 137 200 199 202 199 210 220 214 191 180
243 151 143 121 123 132 143 120 148 136 148 151 144 132 160 154 151 178 170 169 173 168 200 200 189 191 163 185 186 227 78 142 184 316 20 151 173 195 207 225 204 194 184
167 149 119 131 127 141 134 137 135 120 109 110 104 131 127 136 159 152 158 161 174 188 198 189 188 189 188 166 174 142 157 46 84 122 301 358 83 144 216 213 207 182 177
121 128 132 127 115 120 127 125 132 133 126 119 121 117 122 119 125 142 156 179 180 180 191 199 208 200 197 198 189 189 159 162 192 155 159 207 163 89 120 110 130 190 177